CMS Time Trial Series #4 2017

# of participants: 122# of finishers: 118last updated: 7/31/2017 11:37 am
Result Questions?
Award Overall Bib First Name Last Name Gender Age Age Group Rank Division Div Rank City ST Finish Time Speed Lap 1 Lap 2 Lap 3 Lap 4 Lap 5 Lap 6 Lap 7
5 623 RICK WESLOCK M 45 1 Recreation - Age Groups 1 FORT MILL SC 21:03.0 28.5 mph 2:55.0 2:58.0 3:01.0 3:05.0 3:05.0 3:02.0 2:54.0
6 600 DEREK KIDWELL M 33 1 Recreation - Age Groups 2 MOORESVILLE NC 21:13.0 28.28 mph 3:11.0 3:08.0 3:05.0 2:51.0 2:53.0 2:56.0 3:06.0
18 613 BILL RADLER M 60 1 Recreation - Age Groups 3 3820 FOX HILLS DRIVE GA 22:55.0 26.18 mph 3:16.0 3:15.0 3:13.0 3:17.0 3:16.0 3:21.0 3:14.0
19 391 FRED MITCHELL M 43 1 Recreation - Age Groups 4 GALAX VA 23:03.0 26.03 mph 3:16.0 3:13.0 3:14.0 3:19.0 3:18.0 3:21.0 3:19.0
21 629 JONATHAN WISE M 42 2 Recreation - Age Groups 5 CHARLOTTE NC 23:11.0 25.88 mph 3:16.0 3:16.0 3:17.0 3:21.0 3:21.0 3:21.0 3:16.0
22 587 JOHN FINNEY M 51 1 Recreation - Age Groups 6 4901 SPRING CHASE WAY NC 23:12.0 25.86 mph 3:29.0 3:21.0 3:13.0 3:16.0 3:18.0 3:19.0 3:14.0
26 578 ALEX CAILLAT M 38 1 Recreation - Age Groups 7 HIGH POINT NC 23:22.0 25.68 mph 3:14.0 3:10.0 3:23.0 3:26.0 3:32.0 3:25.0 3:10.0
27 610 MARK PETERSON M 66 1 Recreation - Age Groups 8 CORNELIUS NC 23:23.0 25.66 mph 3:18.0 3:15.0 3:20.0 3:21.0 3:18.0 3:25.0 3:23.0
28 410 JEFF WOLSHON M 52 2 Recreation - Age Groups 9 3726 STOKES AVE NC 23:34.0 25.46 mph 3:23.0 3:16.0 3:16.0 3:24.0 3:27.0 3:23.0 3:22.0
29 631 CODY GONZALEZ M 36 2 Recreation - Age Groups 10 10314 CALDWELL DEPOT RD NC 23:44.0 25.28 mph 3:23.0 3:16.0 3:20.0 3:20.0 3:30.0 3:26.0 3:25.0
31 412 ROSS MASON M 68 2 Recreation - Age Groups 11 JAMESTOWN NC 23:50.0 25.17 mph 3:28.0 3:24.0 3:20.0 3:22.0 3:26.0 3:25.0 3:21.0
33 592 GENE HAAS M 41 3 Recreation - Age Groups 12 CHARLOTTE NC 23:54.0 25.1 mph 3:31.0 3:32.0 3:33.0 3:25.0 3:18.0 3:19.0 3:14.0
34 591 JAMES GUIMOND M 57 1 Recreation - Age Groups 13 CHARLOTTE NC 24:00.0 25.0 mph 3:28.0 3:20.0 3:26.0 3:30.0 3:28.0 3:24.0 3:21.0
37 392 ERIC MORRISON M 49 2 Recreation - Age Groups 14 GREENSBORO NC 24:20.0 24.66 mph 3:27.0 3:19.0 3:26.0 3:28.0 3:33.0 3:39.0 3:25.0
39 367 KEITH ALVEY M 62 2 Recreation - Age Groups 15 GASTONIA NC 24:53.0 24.11 mph 3:39.0 3:31.0 3:33.0 3:34.0 3:35.0 3:33.0 3:25.0
41 411 MIKE SHEMANCIK M 56 2 Recreation - Age Groups 17 KERNERSVILLE NC 24:54.0 24.1 mph 3:39.0 3:33.0 3:27.0 3:34.0 3:36.0 3:34.0 3:28.0
40 418 RYAN THIGPEN M 42 4 Recreation - Age Groups 16 HUNTERSVILLE NC 24:54.0 24.1 mph 3:33.0 3:32.0 3:37.0 3:30.0 3:33.0 3:38.0 3:28.0
46 389 WALT MAXWELL M 52 3 Recreation - Age Groups 18 GREEENSBORO NC 25:13.0 23.79 mph 3:33.0 3:38.0 3:36.0 3:37.0 3:39.0 3:37.0 3:30.0
47 366 BRYAN ALLF M 60 3 Recreation - Age Groups 19 GASTONIA NC 25:15.0 23.76 mph 3:36.0 3:34.0 3:38.0 3:36.0 3:40.0 3:36.0 3:32.0
51 383 DARRELL HINKLIN M 71 1 Recreation - Age Groups 20 HUNTERSVILLE NC 25:22.0 23.65 mph 3:39.0 3:40.0 3:36.0 3:40.0 3:36.0 3:35.0 3:33.0
55 414 LAT PURSER M 66 3 Recreation - Age Groups 21 CHARLOTTE NC 25:34.0 23.47 mph 3:41.0 3:34.0 3:34.0 3:37.0 3:42.0 3:44.0 3:40.0
58 413 GRAEME HAMPTON M 67 4 Recreation - Age Groups 22 305 W GREENWAY DR S NC 25:39.0 23.39 mph 3:42.0 3:41.0 3:42.0 3:39.0 3:43.0 3:39.0 3:31.0
59 378 KEITH GARDINER M 57 3 Recreation - Age Groups 23 TRINITY NC 25:41.0 23.36 mph 3:47.0 3:41.0 3:41.0 3:40.0 3:36.0 3:37.0 3:35.0
62 409 RANDY WHITT M 71 2 Recreation - Age Groups 24 CHARLOTTE NC 26:03.0 23.03 mph 3:41.0 3:37.0 3:43.0 3:38.0 3:41.0 3:51.0 3:49.0
63 403 MIKE ROBERTS M 62 4 Recreation - Age Groups 25 BOONE NC 26:04.0 23.02 mph 3:37.0 3:35.0 3:36.0 3:44.0 3:49.0 3:49.0 3:52.0
64 407 WALLACE WARREN M 59 4 Recreation - Age Groups 26 CHARLOTTE NC 26:22.0 22.76 mph 3:48.0 3:43.0 3:41.0 3:43.0 3:48.0 3:49.0 3:47.0
71 393 BARRY MOTSINGER M 60 5 Recreation - Age Groups 27 WINSTON SALEM NC 26:41.0 22.49 mph 3:47.0 3:41.0 3:48.0 3:48.0 3:47.0 3:55.0 3:52.0
75 181 ALAN LYON M 56 5 Recreation - Age Groups 28 CHARLOTTE NC 27:03.0 22.18 mph 3:44.0 3:48.0 3:52.0 3:55.0 3:56.0 3:57.0 3:49.0
81 190 JOHN PRICE M 53 4 Recreation - Age Groups 29 GASTONIA NC 27:39.0 21.7 mph 3:50.0 3:54.0 3:56.0 3:54.0 3:55.0 4:04.0 4:03.0
93 189 VICTOR PINEIRO M 63 6 Recreation - Age Groups 30 CHARLOTTE NC 28:10.0 21.3 mph 4:01.0 3:56.0 4:04.0 4:07.0 4:08.0 4:04.0 3:47.0
95 405 DWIGHT STEWART M 70 3 Recreation - Age Groups 31 CLAREMONT NC 28:24.0 21.13 mph 3:56.0 3:52.0 4:02.0 4:11.0 4:05.0 4:11.0 4:04.0
97 201 CHAD WINSTEAD M 41 5 Recreation - Age Groups 32 WILSON NC 28:31.0 21.04 mph 3:50.0 3:56.0 4:05.0 4:07.0 4:12.0 4:12.0 4:07.0
98 382 DANA HARTLEY M 54 5 Recreation - Age Groups 33 MINT HILL NC 28:32.0 21.03 mph 3:55.0 3:49.0 3:57.0 4:03.0 4:16.0 4:15.0 4:14.0
100 194 SCOTT STEPHENSON M 50 6 Recreation - Age Groups 34 HICKORY NC 28:55.0 20.75 mph 4:00.0 4:05.0 4:07.0 4:13.0 4:13.0 4:16.0 3:57.0
103 165 DAVIS BREEDLOVE M 11 1 Recreation - Age Groups 35 MONROE NC 29:34.0 20.29 mph 4:06.0 4:12.0 4:16.0 4:07.0 4:24.0 4:20.0 4:07.0
106 188 CRAIG PERGERSON M 73 4 Recreation - Age Groups 37 1285 BARE RD WEST JEFFER NC 29:37.0 20.26 mph 4:12.0 4:09.0 4:09.0 4:13.0 4:15.0 4:24.0 4:12.0
105 195 WILL STEPHENSON M 16 1 Recreation - Age Groups 36 HICKORY NC 29:37.0 20.26 mph 4:12.0 4:15.0 4:10.0 4:19.0 4:17.0 4:13.0 4:08.0
108 191 DAVID ROCHESTER M 74 5 Recreation - Age Groups 38 CORNELIUS NC 29:48.0 20.13 mph 4:07.0 4:18.0 4:16.0 4:14.0 4:18.0 4:17.0 4:16.0
109 168 JAMES SNYDER M 14 2 Recreation - Age Groups 39 STATESVILLE NC 30:08.0 19.91 mph 4:08.0 4:14.0 4:26.0 4:11.0 4:23.0 4:36.0 4:07.0
110 174 WILLIE HONEYCUTT M 62 7 Recreation - Age Groups 40 WINSTON-SALEM NC 30:18.0 19.8 mph 4:15.0 4:17.0 4:17.0 4:23.0 4:23.0 4:21.0 4:20.0
111 186 SIMON ORMEROD M 60 8 Recreation - Age Groups 41 CHARLOTTE NC 30:43.0 19.53 mph 4:15.0 4:22.0 4:24.0 4:20.0 4:32.0 4:26.0 4:21.0
114 185 KEVIN MURRAY M 56 6 Recreation - Age Groups 42 GREENVILLE NC 32:13.0 18.62 mph 4:02.0 4:19.0 4:36.0 4:43.0 4:52.0 4:56.0 4:43.0
116 167 DAWSON POTEAT M 12 3 Recreation - Age Groups 43 GASTONIA NC 36:45.0 16.33 mph 4:48.0 5:13.0 5:15.0 5:11.0 5:26.0 5:34.0 5:17.0
197 ROSS TAUCHERT M 35 Recreation - Age Groups CHARLOTTE NC 3:54.0 4:07.0